OPTUS 10

Last updated on Mon Sep 07 2026 00:02:59 GMT+0000 (Coordinated Universal Time)

1 40146U 14054A 26249.33754775 .00000000 00000+0 00000+0 0 9991 2 40146 0.0587 101.0528 0001892 75.8983 86.0024 1.00271256 43847
UTC large
Height (km)
Speed (km/s)
/
Latitude / Longitude
Inclination (degrees)
Orbital Period (minutes)
Azimuth
Elevation
Range (km)
Doppler Factor

Next 0 passes for location: London (51.5072 / 0.1276)

No passes found over London.
OPTUS 10